sat.trackr.live / text

‹ back to catalog

STARLINK-34768

NORAD 65095 · 2025-167T

PAYLOAD ACTIVE UNKNOWN

§ Identity

Operator
Country
US
Launch date
2025-08-04
Launch site
AFETR
Launch vehicle
Mass (kg)
RCS (m²)

Purposes: comms

External: N2YO · Heavens-Above · Gunter

§ Orbital elements

Epoch: 2026-05-25T04:00:03.998880Z

Period
93.38 min
Inclination
53.1591°
Eccentricity
0.0001077
Mean motion
15.42125590 rev/d
Perigee alt
439.1 km
Apogee alt
440.6 km
Semi-major
6,818.0 km
B*
1.3909e-3
RAAN
28.9582°
Arg perigee
77.6951°
Mean anomaly
282.1937°
Rev number
578

§ Raw data

STARLINK-347681 65095U 25167T   26145.16671295  .00060525  00000+0  13909-2 0  99922 65095  53.1591  28.9582 0001077  77.6951 282.1937 15.42125590  5781

JSON: /api/v1/satellites/65095 · /tle

For live sub-satellite position, see the globe view (requires WebGL).

§ Visibility from observer

Set your observer location to see the next 7 days of passes ≥ 10°. The values pass through the URL so the page stays shareable.

No JS? Fill the form by hand. The geolocation button needs JavaScript.